User: anonymous   Login
Location: Vancouver
(49.2500°N, 123.1330°W)
Time: 12:46:40
(UTC-07:00)
Language:

ERS-2 - Orbit

View from above orbital plane
View from above orbital plane
View from above satellite
View from above satellite

Ground track
Ground track

The orbit data is extracted from the following two-line orbital elements,

1 23560U 95021A   16119.84864538 +.00003200 +00000-0 +15800-3 0  9999
2 23560 098.5116 052.4000 0002342 273.9061 086.1902 15.18774271112427
Epoch (UTC): 28 April 2016 20:22:02
Eccentricity: 0.0002342
inclination: 98.5116°
perigee height: 508 km
apogee height: 511 km
right ascension of ascending node: 52.4000°
argument of perigee: 273.9061°
revolutions per day: 15.18774271
mean anomaly at epoch: 86.1902°
orbit number at epoch: 11242

The dashed part of the orbit path shows where the satellite is in the earth's shadow,  

DLR